Flag for Kuwait Weather past 2 weeks in Kuwait City, Kuwait

Now
104 °F

Sunny.


Feels Like: 99 °F
Forecast: 84 / 103 °F
Wind: 15 mph from Northeast

Location: Kuwait International Airport

Current Time: May 25, 2015 at 12:43:01 PM

Latest Report: May 25, 2015 at 12:00 PM


Visibility: 10 mi

Pressure: 29.83 "Hg

Humidity: 12%

Dew point: 43 °F

Location of Kuwait CityLocation

Historic Weather in Kuwait City — Graph

°F

Kuwait City temperature yesterday

Maximum temperature yesterday: 106 °F (at 2:00 PM)
Minimum temperature yesterday: 86 °F (at 5:00 AM)
Average temperature yesterday: 97 °F

Past Weeks' High & Low Weather Summary

 TemperatureHumidityPressure
High111 °F (May 14, 12:29 PM)39% (May 13, 3:00 AM)29.95 "Hg (May 13, 3:00 AM)
Low75 °F (May 18, 4:00 AM)5% (May 19, 5:00 PM)29.59 "Hg (May 22, 7:00 PM)
Average94 °F15%29.75 "Hg
* Reported May 10 11:00 AM — May 25 11:00 AM, Kuwait City, Weather by CustomWeather, © 2015

Note: Actual official high and low records may vary slightly from our data, if they occured in-between our weather recording intervals... More about our weather records

Advertising

Kuwait City weather history for previous 24 hours

 ConditionsComfort  
Time TempWeatherWind HumidityBarometerVisibility
11:00 AM
Mon, May 25
100 °FSunny.15 mph15%29.86 "Hg10 mi
10:00 AM99 °FSunny.20 mph17%29.83 "Hg10 mi
9:00 AM95 °FSunny.16 mph16%29.86 "Hg10 mi
8:00 AM95 °FSunny.13 mph22%29.83 "Hg10 mi
7:00 AM91 °FSunny.13 mph24%29.80 "Hg10 mi
6:30 AM90 °FSunny.15 mph26%29.80 "Hg10 mi
5:00 AM90 °FSunny.13 mph24%29.77 "Hg10 mi
4:30 AM90 °FClear.9 mph24%29.77 "Hg10 mi
3:00 AM91 °FClear.12 mph24%29.74 "Hg10 mi
2:00 AM91 °FClear.13 mph23%29.74 "Hg10 mi
1:00 AM91 °FClear.12 mph23%29.74 "Hg10 mi
12:00 AM93 °FClear.9 mph20%29.77 "Hg10 mi
11:00 PM
Sun, May 24
95 °FClear.10 mph18%29.74 "Hg10 mi
10:00 PM97 °FClear.13 mph17%29.74 "Hg10 mi
9:00 PM99 °FPassing clouds.14 mph15%29.74 "HgN/A
8:00 PM100 °FThundershowers. Passing clouds.9 mph13%29.74 "HgN/A
7:00 PM102 °FPartly cloudy.3 mph12%29.74 "HgN/A
6:00 PM102 °FSunny.12 mph11%29.71 "Hg10 mi
5:00 PM106 °FSunny.12 mph11%29.71 "Hg10 mi
3:59 PM106 °FSunny.14 mph11%29.74 "Hg10 mi
3:00 PM106 °FSunny.1 mph11%29.74 "Hg10 mi
2:00 PM106 °FSunny.12 mph11%29.74 "Hg10 mi
1:00 PM104 °FSunny.14 mph13%29.77 "Hg10 mi
12:00 PM100 °FSunny.16 mph15%29.77 "Hg10 mi
Weather by CustomWeather, © 2015

See weather overviewHow to use our weather pages